User: anonymous   Login
Location: Riverside
(39.1734°N, 77.8561°W)
Time: 03:38:06
(UTC+00:00)
Language:

BEESAT - Orbit

View from above orbital plane
View from above orbital plane
View from above satellite
View from above satellite

Ground track
Ground track

The orbit data is extracted from the following two-line orbital elements,

1 35933U 09051C   19145.89699189 +.00000091 +00000-0 +31495-4 0  9993
2 35933 098.5888 312.9239 0004678 246.5134 113.5572 14.56367831513344
Epoch (UTC): 25 May 2019 21:31:40
Eccentricity: 0.0004678
inclination: 98.5888°
perigee height: 701 km
apogee height: 708 km
right ascension of ascending node: 312.9239°
argument of perigee: 246.5134°
revolutions per day: 14.56367831
mean anomaly at epoch: 113.5572°
orbit number at epoch: 51334

The dashed part of the orbit path shows where the satellite is in the earth's shadow,  

DLR